Regional Weather Roundup
Issued by NWS Burlington, VT

Current Version | Previous Version | Text Only | Print | Product List | Glossary On
Versions: 1 2 3 4 5 6 7 8 9 10 11 12 13 14 15 16 17 18 19 20 21 22 23 24 25 26 27 28 29 30 31 32 33 34 35 36 37 38 39 40 41 42 43 44 45 46 47 48 49 50
819
ASUS41 KBTV 210310
RWRBTV
VERMONT REGIONAL WEATHER ROUNDUP
NATIONAL WEATHER SERVICE BURLINGTON VT
1100 PM EDT FRI APR 20 2018

NOTE: "FAIR" INDICATES FEW OR NO CLOUDS BELOW 12,000 FEET WITH NO
SIGNIFICANT WEATHER AND/OR OBSTRUCTIONS TO VISIBILITY.

* THESE REPORTS ARE NOT UNDER NWS QUALITY CONTROL AND/OR DO NOT
  REPORT WEATHER SUCH AS PRECIPITATION AND FOG.

VTZ001>019-210400-
_____VERMONT_____


CITY           SKY/WX    TMP DP  RH WIND       PRES   REMARKS
BURLINGTON     CLOUDY    42  27  55 CALM      30.27S
MONTPELIER     CLOUDY    35  29  78 NW5       30.28R WCI  31
MORRISVILLE    CLOUDY    35  29  78 CALM      30.25S
ST. JOHNSBURY*   N/A     37  29  72 MISG      30.22S
LYNDONVILLE*   CLOUDY    35  28  76 CALM      30.23S
MIDDLEBURY*    CLOUDY    36  30  79 CALM      30.27S
RUTLAND*       CLOUDY    35  28  75 CALM      30.28S
SPRINGFIELD    CLOUDY    39  25  57 CALM      30.27S
HIGHGATE*      CLOUDY    40  28  62 N7        30.28R
NEWPORT*       CLOUDY    36  26  67 NW6       30.23S WCI  32
BENNINGTON     CLOUDY    36  24  62 W5        30.30S

_____LAKE CHAMPLAIN_____


CITY           SKY/WX    TMP DP  RH WIND       PRES   REMARKS
BURTON ISLAND*   N/A     41  32  70 NE1         N/A
COLCHESTER RF*   N/A     41  30  65 NW12        N/A

$$

NYZ007-026>031-035-052-083-087-210400-
_____NORTHERN NEW YORK_____


CITY           SKY/WX    TMP DP  RH WIND       PRES   REMARKS
PLATTSBURGH    CLOUDY    43  23  45 NW7       30.27S
SARANAC LAKE   CLOUDY    32  27  81 SW6       30.25S WCI  26
MASSENA        FAIR      31  29  92 W3        30.32S
OGDENSBURG*    FAIR      34  28  78 CALM      30.33R
POTSDAM*       CLOUDY    37  28  70 SW6       30.31S
WATERTOWN      FAIR      33  30  88 S5        30.35S WCI  29
FT DRUM        FAIR      34  28  79 SW8       30.32S WCI  27
ALBANY         FAIR      34  24  67 W9        30.34S WCI  27
GLENS FALLS    FAIR      32  25  75 SW3       30.31

$$
NHZ002-005-011-210400-
_____NEW HAMPSHIRE_____


CITY           SKY/WX    TMP DP  RH WIND       PRES   REMARKS
LEBANON        CLOUDY    40  25  55 CALM      30.25S
KEENE          CLOUDY    39  26  59 VRB5      30.28S
MT WASHINGTON  SNOW      14  14 100 NW55G63     N/A  VSB 0   WCI -12
PLYMOUTH       CLOUDY    39  29  67 W7        30.24S
WHITEFIELD     CLOUDY    36  29  75 SW3       30.22R

$$

_____REGIONAL QUEBEC LOCATIONS_____


CITY           SKY/WX    TMP DP  RH WIND       PRES   REMARKS
MONTREAL       MOCLDY    41  25  52 NE8       30.28S
QUEBEC CITY    MOCLDY    37  28  70 W5        30.19R
SHERBROOKE     PTCLDY    36  27  69 W8        30.20S WCI  29

_____REGIONAL ONTARIO LOCATIONS_____


CITY           SKY/WX    TMP DP  RH WIND       PRES   REMARKS
OTTAWA         CLEAR     37  21  52 NW8       30.32R WCI  31

______KEY______
VSB  - VISIBILITY IN MILES
WCI  - WIND CHILL INDEX
HX   - HEAT INDEX
$$
NNNN




USA.gov is the U.S. government's official web portal to all federal, state and local government web resources and services.